OAL017 LCLK-LGRP

Flight info

Callsign OAL017
Flight time 0h 56m
Altitude 34000
Route PHA M31 GENOS DCT PEDER DCT EVENO M601 LAKAD
Aircraft A319/M-SDE3FGHIRWY/LB1

Departure

Time 2026-05-01 10:18
Airport Larnaca International Airport (LCLK)

Arrival

Time 2026-05-01 11:15
Airport Rhodes International Airport "Diagoras" (LGRP)
Time Latitude Longitude Altitude Speed Heading
2026-05-01 10:14 34.88384 33.63036 20 ft 0 kts 225°
2026-05-01 10:15 34.88391 33.63045 20 ft 4 kts 225°
2026-05-01 10:15 34.88389 33.63042 20 ft 3 kts 225°
2026-05-01 10:16 34.88360 33.63060 20 ft 8 kts 137°
2026-05-01 10:16 34.88327 33.63141 20 ft 15 kts 72°
2026-05-01 10:16 34.88407 33.63408 21 ft 19 kts 125°
2026-05-01 10:17 34.88399 33.63421 21 ft 2 kts 125°
2026-05-01 10:17 34.88324 33.63517 21 ft 14 kts 176°
2026-05-01 10:17 34.88268 33.63485 21 ft 10 kts 224°
2026-05-01 10:18 34.87437 33.62508 45 ft 164 kts 220°
2026-05-01 10:18 34.86625 33.61496 823 ft 170 kts 225°
2026-05-01 10:18 34.85810 33.60409 1703 ft 177 kts 226°
2026-05-01 10:19 34.84970 33.59257 2574 ft 191 kts 225°
2026-05-01 10:19 34.84006 33.57997 3321 ft 216 kts 225°
2026-05-01 10:19 34.82916 33.56603 3965 ft 240 kts 226°
2026-05-01 10:20 34.80439 33.53447 5637 ft 267 kts 227°
2026-05-01 10:20 34.79145 33.51796 6699 ft 271 kts 229°
2026-05-01 10:20 34.77835 33.50123 7704 ft 276 kts 227°
2026-05-01 10:20 34.76501 33.48420 8714 ft 280 kts 228°
2026-05-01 10:21 34.75157 33.46702 9786 ft 281 kts 228°
2026-05-01 10:21 34.72299 33.43048 10795 ft 321 kts 228°
2026-05-01 10:21 34.70724 33.41029 11348 ft 334 kts 229°
2026-05-01 10:22 34.68465 33.36077 12923 ft 341 kts 255°
2026-05-01 10:22 34.68180 33.30346 14480 ft 347 kts 273°
2026-05-01 10:23 34.68308 33.27407 15207 ft 350 kts 273°
2026-05-01 10:23 34.68552 33.21438 16651 ft 357 kts 272°
2026-05-01 10:23 34.68671 33.18405 17371 ft 361 kts 272°
2026-05-01 10:24 34.68912 33.12250 18746 ft 368 kts 272°
2026-05-01 10:24 34.69158 33.05987 20047 ft 374 kts 272°
2026-05-01 10:25 34.69404 32.99626 21342 ft 380 kts 273°
2026-05-01 10:25 34.69648 32.93169 22564 ft 386 kts 273°
2026-05-01 10:26 34.69771 32.89898 23148 ft 389 kts 273°
2026-05-01 10:26 34.69893 32.86610 23697 ft 391 kts 273°
2026-05-01 10:26 34.70138 32.79980 24720 ft 394 kts 273°
2026-05-01 10:27 34.70380 32.73294 25723 ft 397 kts 274°
2026-05-01 10:27 34.70624 32.66557 26712 ft 401 kts 274°
2026-05-01 10:28 34.70743 32.63173 27201 ft 402 kts 274°
2026-05-01 10:28 34.70979 32.56360 28170 ft 405 kts 274°
2026-05-01 10:28 34.71098 32.52935 28640 ft 407 kts 274°
2026-05-01 10:29 34.70944 32.46075 29514 ft 411 kts 268°
2026-05-01 10:29 34.70758 32.42549 29948 ft 413 kts 268°
2026-05-01 10:30 34.70747 32.35619 30619 ft 413 kts 283°
2026-05-01 10:30 34.72678 32.29065 31458 ft 411 kts 291°
2026-05-01 10:31 34.74762 32.22674 32584 ft 403 kts 292°
2026-05-01 10:31 34.76803 32.16387 33670 ft 398 kts 292°
2026-05-01 10:32 34.78809 32.10160 33986 ft 390 kts 292°
2026-05-01 10:32 34.79794 32.07100 33988 ft 387 kts 292°
2026-05-01 10:33 34.83673 31.95013 33991 ft 382 kts 292°
2026-05-01 10:34 34.86563 31.85977 33991 ft 382 kts 292°
2026-05-01 10:34 34.88475 31.79993 33986 ft 381 kts 292°
2026-05-01 10:35 34.91336 31.70984 33987 ft 379 kts 292°
2026-05-01 10:35 34.93242 31.64992 33984 ft 379 kts 292°
2026-05-01 10:36 34.96087 31.56019 33980 ft 378 kts 291°
2026-05-01 10:37 34.97973 31.50032 33977 ft 378 kts 291°
2026-05-01 10:37 35.00796 31.41069 33976 ft 377 kts 291°
2026-05-01 10:38 35.02661 31.35144 33975 ft 377 kts 291°
2026-05-01 10:38 35.04536 31.29176 33973 ft 377 kts 291°
2026-05-01 10:39 35.06401 31.23201 33978 ft 376 kts 291°
2026-05-01 10:39 35.08261 31.17225 33975 ft 376 kts 291°
2026-05-01 10:40 35.10144 31.11269 33973 ft 376 kts 294°
2026-05-01 10:40 35.11549 31.08579 33972 ft 378 kts 307°
2026-05-01 10:40 35.13201 31.06089 33971 ft 378 kts 307°
2026-05-01 10:41 35.16535 31.01121 33969 ft 378 kts 307°
2026-05-01 10:42 35.21547 30.93679 33951 ft 378 kts 306°
2026-05-01 10:42 35.24875 30.88689 33961 ft 379 kts 306°
2026-05-01 10:43 35.28204 30.83684 33960 ft 379 kts 306°
2026-05-01 10:43 35.31517 30.78715 33963 ft 380 kts 306°
2026-05-01 10:44 35.34853 30.73703 33965 ft 380 kts 306°
2026-05-01 10:44 35.38182 30.68681 33966 ft 380 kts 306°
2026-05-01 10:45 35.41516 30.63658 33965 ft 380 kts 306°
2026-05-01 10:45 35.44850 30.58633 33991 ft 379 kts 306°
2026-05-01 10:46 35.48171 30.53616 33988 ft 379 kts 306°
2026-05-01 10:46 35.51487 30.48594 33979 ft 378 kts 306°
2026-05-01 10:47 35.54797 30.43576 33969 ft 378 kts 306°
2026-05-01 10:47 35.58102 30.38559 33966 ft 378 kts 306°
2026-05-01 10:48 35.61403 30.33532 33957 ft 378 kts 306°
2026-05-01 10:48 35.64709 30.28505 33954 ft 378 kts 306°
2026-05-01 10:49 35.67993 30.23504 33952 ft 378 kts 306°
2026-05-01 10:49 35.71294 30.18462 33952 ft 378 kts 305°
2026-05-01 10:50 35.74595 30.13412 33951 ft 378 kts 306°
2026-05-01 10:50 35.77889 30.08365 33949 ft 378 kts 305°
2026-05-01 10:51 35.81185 30.03306 33991 ft 378 kts 305°
2026-05-01 10:51 35.83902 29.97843 33990 ft 373 kts 290°
2026-05-01 10:52 35.85564 29.91809 33984 ft 371 kts 288°
2026-05-01 10:52 35.87207 29.85776 33976 ft 371 kts 288°
2026-05-01 10:53 35.88841 29.79742 33970 ft 371 kts 288°
2026-05-01 10:53 35.90468 29.73719 33965 ft 370 kts 288°
2026-05-01 10:54 35.92094 29.67701 33953 ft 370 kts 288°
2026-05-01 10:54 35.92905 29.64680 33693 ft 371 kts 288°
2026-05-01 10:54 35.93716 29.61658 33419 ft 371 kts 288°
2026-05-01 10:54 35.94528 29.58629 33147 ft 372 kts 288°
2026-05-01 10:55 35.95339 29.55595 32301 ft 375 kts 288°
2026-05-01 10:55 35.96162 29.52511 31284 ft 381 kts 287°
2026-05-01 10:55 35.96988 29.49433 30358 ft 385 kts 287°
2026-05-01 10:55 35.97831 29.46311 29640 ft 382 kts 287°
2026-05-01 10:56 35.98663 29.43226 28987 ft 376 kts 287°
2026-05-01 10:56 35.99481 29.40181 28337 ft 371 kts 287°
2026-05-01 10:56 36.00288 29.37171 27687 ft 367 kts 287°
2026-05-01 10:56 36.01087 29.34195 27058 ft 364 kts 287°
2026-05-01 10:57 36.01881 29.31240 26425 ft 360 kts 287°
2026-05-01 10:57 36.02668 29.28311 25806 ft 358 kts 286°
2026-05-01 10:57 36.03448 29.25401 25191 ft 356 kts 286°
2026-05-01 10:57 36.04224 29.22502 24579 ft 355 kts 286°
2026-05-01 10:58 36.04998 29.19603 23979 ft 355 kts 285°
2026-05-01 10:58 36.05767 29.16706 23357 ft 355 kts 285°
2026-05-01 10:58 36.06534 29.13812 22741 ft 354 kts 285°
2026-05-01 10:58 36.07296 29.10930 22180 ft 351 kts 285°
2026-05-01 10:59 36.08052 29.08079 21638 ft 348 kts 285°
2026-05-01 10:59 36.08801 29.05254 21118 ft 344 kts 285°
2026-05-01 10:59 36.09542 29.02458 20598 ft 341 kts 285°
2026-05-01 10:59 36.10264 28.99728 20093 ft 337 kts 285°
2026-05-01 11:00 36.10989 28.96988 19582 ft 334 kts 285°
2026-05-01 11:00 36.11705 28.94270 19075 ft 331 kts 285°
2026-05-01 11:00 36.12418 28.91571 18553 ft 329 kts 285°
2026-05-01 11:00 36.13127 28.88881 17981 ft 328 kts 285°
2026-05-01 11:01 36.13828 28.86205 17426 ft 326 kts 285°
2026-05-01 11:01 36.14521 28.83551 16877 ft 323 kts 286°
2026-05-01 11:01 36.15212 28.80920 16332 ft 320 kts 286°
2026-05-01 11:01 36.15896 28.78310 15785 ft 318 kts 286°
2026-05-01 11:02 36.16577 28.75713 15234 ft 316 kts 286°
2026-05-01 11:02 36.17255 28.73131 14685 ft 315 kts 286°
2026-05-01 11:02 36.17928 28.70564 14134 ft 313 kts 286°
2026-05-01 11:02 36.18596 28.68003 13565 ft 312 kts 286°
2026-05-01 11:03 36.19261 28.65454 12980 ft 310 kts 286°
2026-05-01 11:03 36.19918 28.62933 12438 ft 307 kts 286°
2026-05-01 11:03 36.20571 28.60427 11893 ft 304 kts 286°
2026-05-01 11:03 36.21216 28.57943 11354 ft 302 kts 286°
2026-05-01 11:04 36.21857 28.55469 10828 ft 301 kts 286°
2026-05-01 11:04 36.22489 28.53020 10513 ft 293 kts 287°
2026-05-01 11:04 36.23095 28.50676 10389 ft 279 kts 287°
2026-05-01 11:04 36.23846 28.48497 10157 ft 274 kts 296°
2026-05-01 11:05 36.24761 28.46452 9980 ft 270 kts 297°
2026-05-01 11:05 36.25668 28.44415 9826 ft 269 kts 297°
2026-05-01 11:05 36.26558 28.42411 9698 ft 269 kts 297°
2026-05-01 11:05 36.27458 28.40380 9505 ft 269 kts 297°
2026-05-01 11:06 36.28399 28.38328 8712 ft 281 kts 302°
2026-05-01 11:06 36.29868 28.36645 7866 ft 299 kts 327°
2026-05-01 11:06 36.31901 28.35920 7033 ft 312 kts 355°
2026-05-01 11:07 36.36162 28.36958 5392 ft 310 kts 11°
2026-05-01 11:07 36.38247 28.37592 4564 ft 306 kts 12°
2026-05-01 11:07 36.40308 28.38215 3730 ft 303 kts 12°
2026-05-01 11:07 36.42345 28.38775 3137 ft 291 kts
2026-05-01 11:08 36.44250 28.38584 3008 ft 263 kts 340°
2026-05-01 11:08 36.45788 28.37586 2878 ft 239 kts 318°
2026-05-01 11:08 36.47345 28.34420 2619 ft 201 kts 282°
2026-05-01 11:09 36.47416 28.32742 2503 ft 190 kts 264°
2026-05-01 11:09 36.47085 28.31191 2377 ft 182 kts 254°
2026-05-01 11:09 36.46686 28.29752 2298 ft 169 kts 253°
2026-05-01 11:10 36.45945 28.27181 2063 ft 145 kts 253°
2026-05-01 11:10 36.45614 28.26037 2013 ft 137 kts 252°
2026-05-01 11:10 36.45311 28.24991 1997 ft 125 kts 253°
2026-05-01 11:10 36.45018 28.23982 2012 ft 123 kts 253°
2026-05-01 11:11 36.44729 28.22988 1990 ft 121 kts 253°
2026-05-01 11:11 36.44447 28.22018 1910 ft 121 kts 253°
2026-05-01 11:11 36.44160 28.21031 1776 ft 121 kts 253°
2026-05-01 11:11 36.43874 28.20051 1642 ft 120 kts 253°
2026-05-01 11:12 36.43591 28.19079 1488 ft 119 kts 253°
2026-05-01 11:12 36.43311 28.18121 1332 ft 117 kts 253°
2026-05-01 11:12 36.43035 28.17174 1169 ft 117 kts 255°
2026-05-01 11:12 36.42758 28.16223 1021 ft 118 kts 254°
2026-05-01 11:13 36.42569 28.15577 921 ft 117 kts 252°
2026-05-01 11:13 36.42204 28.14326 717 ft 116 kts 252°
2026-05-01 11:13 36.42017 28.13689 626 ft 116 kts 252°
2026-05-01 11:13 36.41746 28.12758 475 ft 116 kts 252°
2026-05-01 11:14 36.41468 28.11809 319 ft 115 kts 252°
2026-05-01 11:14 36.41196 28.10878 172 ft 115 kts 252°
2026-05-01 11:14 36.40926 28.09959 36 ft 114 kts 251°
2026-05-01 11:14 36.40686 28.09156 31 ft 61 kts 250°
2026-05-01 11:15 36.40583 28.08802 29 ft 36 kts 250°
2026-05-01 11:15 36.40531 28.08652 28 ft 13 kts 208°
2026-05-01 11:15 36.40457 28.08702 28 ft 11 kts 118°
2026-05-01 11:15 36.40444 28.08732 28 ft 5 kts 118°
2026-05-01 11:16 36.40424 28.08781 28 ft 8 kts 117°
2026-05-01 11:16 36.40400 28.08837 28 ft 7 kts 117°
2026-05-01 11:16 36.40394 28.08909 28 ft 10 kts 88°
2026-05-01 11:16 36.40394 28.08985 28 ft 9 kts 109°
2026-05-01 11:17 36.40336 28.09027 28 ft 7 kts 160°
2026-05-01 11:17 36.40330 28.09029 28 ft 0 kts 160°